Location: Spangle
(47.4302°N, 117.3779°W)
Time: 12:03:25
(UTC+00:00)

ISS - Pass Details

Date: 25 April 2026
Orbit: 414 x 424 km, 51.6° (Epoch: 11 May)

Event Time Altitude Azimuth Distance (km) Brightness Sun altitude
Exits shadow 10:30:14 61° 152° (SSE) 480 -3.7 -19.3°
Maximum altitude 10:30:15 61° 151° (SSE) 480 -3.7 -19.3°
Drops below altitude 10° 10:33:35 10° 70° (ENE) 1,504 0.0 -18.9°
Sets 10:35:42 0° 66° (ENE) 2,373 1.3 -18.7°
